This demonstration page uses our WeatherBlox Daily Observations layout. Learn more.

41.55636, -103.73856

Hourly Observations for January 5, 2019

Temp ( °F °C ) Dew Point ( °F °C ) Humidity (%) Winds ( mph kmh ) Pressure ( in mb ) Visibility ( mi km ) Precip ( " mm )
12:58 am 00:58 Clear 36 2.2 21 -5.9 55 55 W 14 22 30.01 1016 10 16.0934 N/A
1:58 am 01:58 Clear 40 4.7 22 -5.8 47 47 W 14 22 30 1016 10 16.0934 N/A
2:58 am 02:58 Mostly Cloudy 41 5.2 22 -5.5 46 46 SW 17 28 30 1016 10 16.0934 N/A
3:58 am 03:58 Mostly Clear 37 2.7 23 -5.2 56 56 SW 13 20 30.01 1016 10 16.0934 N/A
4:58 am 04:58 Mostly Clear 35 1.8 23 -5.1 61 61 WSW 7 11 29.99 1016 10 16.0934 N/A
5:58 am 05:58 Mostly Clear 39 4.1 21 -6 48 48 WSW 10 17 29.96 1014 10 16.0934 N/A
6:58 am 06:58 Mostly Clear 40 4.6 21 -6.3 45 45 W 10 17 29.94 1014 10 16.0934 N/A
7:58 am 07:58 Clear 43 5.9 17 -8.3 36 36 WNW 3 6 29.93 1014 10 16.0934 N/A
8:58 am 08:58 Clear 40 4.5 18 -7.7 41 41 NW 6 9 29.95 1014 10 16.0934 N/A
9:58 am 09:58 Clear 38 3.1 19 -7.1 47 47 W 6 9 29.96 1015 10 16.0934 N/A
10:58 am 10:58 Clear 37 2.7 19 -7.1 49 49 WNW 6 9 29.97 1015 10 16.0934 N/A
11:58 am 11:58 Clear 35 1.9 19 -7.1 52 52 Calm 30.02 1017 10 16.0934 N/A
12:58 pm 12:58 Clear 39 3.7 16 -8.7 40 40 W 3 6 30.01 1016 10 16.0934 N/A
1:58 pm 13:58 Clear 30 -1 19 -7.1 64 64 WNW 9 15 30.04 1017 10 16.0934 N/A
2:58 pm 14:58 Sunny 39 3.8 16 -8.7 40 40 N 3 6 30.02 1017 10 16.0934 N/A
3:58 pm 15:58 Sunny 44 6.9 16 -8.9 32 32 SSW 5 7 30.04 1017 10 16.0934 N/A
4:58 pm 16:58 Sunny 50 10 20 -6.9 30 30 WNW 7 11 30.02 1017 10 16.0934 N/A
5:58 pm 17:58 Sunny 53 11.7 19 -7.2 26 26 WNW 14 22 29.96 1015 10 16.0934 N/A
6:58 pm 18:58 Sunny 56 13.6 19 -7.2 23 23 WNW 14 22 29.91 1013 10 16.0934 N/A
7:58 pm 19:58 Sunny 57 13.9 19 -7.2 23 23 NNE 5 7 29.88 1012 10 16.0934 N/A
8:58 pm 20:58 Sunny 55 12.8 19 -7.1 25 25 ESE 5 7 29.89 1012 10 16.0934 N/A
9:58 pm 21:58 Sunny 49 9.7 26 -3.1 41 41 SE 6 9 29.93 1014 10 16.0934 N/A
10:58 pm 22:58 Sunny 46 7.5 26 -3.1 47 47 SE 7 11 29.99 1016 10 16.0934 N/A
11:58 pm 23:58 Mostly Cloudy 42 5.7 24 -4.7 48 48 SE 5 7 29.99 1016 10 16.0934 N/A

Powered by AerisWeather